{"data":{"norad_id":48438,"intl_designator":"2021-040L","name":"STARLINK-2640","alt_names":[],"object_type":"PAYLOAD","status":"ACTIVE","operator":null,"country":"US","launch_date":"2021-05-09","launch_site_code":"AFETR","launch_vehicle":null,"mission":null,"orbit_class":"UNKNOWN","rcs_meters":null,"size_class":null,"mass_kg":null,"dimensions":null,"purposes":["comms"],"wikipedia_slug":null,"has_3d_model":false,"image_url":null,"decayed_at":null,"tle_current":{"epoch":"2026-09-19T21:21:32.335776Z","epoch_age_seconds":89948,"freshness":"FRESH","line1":"1 48438U 21040L   26262.88995759  .00000519  00000+0  28484-4 0  9996","line2":"2 48438  53.1602 354.4374 0001167 109.6291 250.4836 15.31704647296439","mean_motion":15.31704647,"eccentricity":0.0001167,"inclination_deg":53.1602,"raan_deg":354.4374,"arg_perigee_deg":109.6291,"mean_anomaly_deg":250.4836,"bstar":2.8484e-5,"rev_number":29643,"period_min":94.012902736855,"perigee_km":469.92688046672,"apogee_km":471.52540512424,"semimajor_km":6848.8631427955,"source":"CELESTRAK","updated_at":"2026-09-20T09:00:39.124623Z"}}}